Overview Statistics Trail Chart Weather Telemetry Raw packets
 

This is the latest recevied weather packets stored in our database for station/object SV9TNF-57. If no packets are shown the sender has not sent any weather packets the latest 10 day(s).

<< 1 2 3 4 5 6 >>
Time Temp. Humidity Pressure Rain* Wind** Luminosity Snow
1788654777 25.56° C 72% 996.5 hPa 0 mm 0 m/s - -
1788654477 25.56° C 71% 996.6 hPa 0 mm 0 m/s - -
1788654177 25.56° C 71% 996.5 hPa 0 mm 0.45 m/s, 207° - -
1788653876 25.56° C 71% 996.7 hPa 0 mm 0 m/s - -
1788653576 25.56° C 70% 996.9 hPa 0 mm 0 m/s - -
1788653277 25.56° C 69% 996.8 hPa 0 mm 0 m/s - -
1788652977 25.56° C 67% 997 hPa 0 mm 0 m/s - -
1788652676 25.56° C 65% 996.8 hPa 0 mm 0 m/s - -
1788652376 25.56° C 64% 997.1 hPa 0 mm 0 m/s - -
1788652076 25.56° C 61% 996.9 hPa 0 mm 0 m/s - -
1788651776 25.56° C 60% 996.9 hPa 0 mm 0 m/s - -
1788651476 25° C 60% 997.2 hPa 0 mm 0 m/s - -
1788651176 25.56° C 58% 996.9 hPa 0 mm 0 m/s - -
1788650876 25.56° C 57% 997 hPa 0 mm 0 m/s - -
1788650576 25.56° C 55% 997.1 hPa 0 mm 0 m/s - -
1788650276 25.56° C 56% 997.1 hPa 0 mm 0 m/s - -
1788649975 25.56° C 57% 997.1 hPa 0 mm 0 m/s - -
1788649675 25.56° C 56% 997.1 hPa 0 mm 0 m/s - -
1788649375 25.56° C 59% 997.3 hPa 0 mm 0 m/s - -
1788649078 25.56° C 59% 997.2 hPa 0 mm 0 m/s - -
1788648775 25.56° C 60% 997.2 hPa 0 mm 0 m/s - -
1788648475 25.56° C 57% 997.1 hPa 0 mm 0 m/s - -
1788648175 25.56° C 58% 997.2 hPa 0 mm 0 m/s - -
1788647875 26.11° C 61% 997.4 hPa 0 mm 0 m/s - -
1788647575 25.56° C 62% 997.4 hPa 0 mm 0 m/s - -

* Rain latest hour (hover to see other rain measurements)
** Current wind speed in m/s (hover to see current wind gust speed)